(60) Echo
ephemeris date magn radius delta ra dec elong phase
Opposition28 Mar 202511.02.279 AU1.281 AU12h29m-03°36'179.4°0.3°
Today9 May 202512.42.365 AU1.559 AU12h05m+00°10'133.0°18.2°
(60) Echo - 2025-05-09
astro.vanbuitenen.nl


 
-1 year
-1 month
-1 day
Now
+1 day
+1 month
+1 year

The interactive orbit chart above shows the body's path through the solar system and its position at the given date. Green and blue lines are shown perpendicular to the ecliptic plane: Green if the path is above the ecliptic plane, blue if it is below. (Left-click and drag to rotate the view; Right-click and drag to move the view; Use scroll wheel to zoom in our out.)

The orbital elements of Echo are:

            e (Eccentricity)                : 0.1845002
            a (Semimajor axis)              : 2.3923459
            i (Inclination)                 : 3.60049
            Ω (Longitude of ascending node) : 191.52666
            ω (Argument of perihelion)      : 270.80955
            M (Mean anomaly)                : 74.87065
            Epoch                           : 2025 May 05

            L (Longitude of perihelion)     : 102.33781
            B (Latitude of perihelion)      : -3.60013
            P (Orbital period in years)     : 3.70            
        

The light curve chart below shows the estimated development of the minor planet's magnitude.


The all-sky chart below shows the path of the minor planet over the same period as the light curve. The current position is marked yellow.





The following chart shows the path of the minor planet in the next few days. The field of view is optimized for (~10x50) binoculars and finderscopes. A more printer-friendly version of the same chart can be found below.




Ephemerides:
Date       Time       RA (2000)    DEC (2000)    delta   radius  elong  phase   PA    magn
2025-05-09 00:00 UT   12 05 57.2   +00 10 40     1.559    2.365  133.0   18.2   114   12.4 
2025-05-09 15:24 UT   12 05 55.3   +00 11 44     1.566    2.367  132.4   18.4   114   12.4 
2025-05-10 00:00 UT   12 05 54.6   +00 12 17     1.570    2.367  132.0   18.5   114   12.5 
2025-05-11 00:00 UT   12 05 53.6   +00 13 42     1.581    2.369  131.0   18.8   114   12.5 
2025-05-12 00:00 UT   12 05 54.3   +00 14 55     1.592    2.372  130.1   19.0   114   12.5 
2025-05-13 00:00 UT   12 05 56.5   +00 15 57     1.603    2.374  129.1   19.3   114   12.5 
2025-05-14 00:00 UT   12 06 00.3   +00 16 47     1.615    2.376  128.2   19.5   114   12.6 
2025-05-15 00:00 UT   12 06 05.7   +00 17 25     1.626    2.378  127.2   19.8   114   12.6 
2025-05-16 00:00 UT   12 06 12.6   +00 17 52     1.638    2.380  126.3   20.0   114   12.6 
2025-05-17 00:00 UT   12 06 21.0   +00 18 08     1.650    2.382  125.3   20.3   114   12.6 
2025-05-18 00:00 UT   12 06 31.0   +00 18 12     1.662    2.384  124.4   20.5   114   12.7 
2025-05-19 00:00 UT   12 06 42.5   +00 18 06     1.674    2.386  123.5   20.7   114   12.7 
2025-05-20 00:00 UT   12 06 55.4   +00 17 48     1.686    2.388  122.6   20.9   114   12.7 
2025-05-21 00:00 UT   12 07 09.8   +00 17 20     1.698    2.390  121.7   21.1   114   12.7 
2025-05-22 00:00 UT   12 07 25.7   +00 16 41     1.711    2.392  120.8   21.3   114   12.8 
2025-05-23 00:00 UT   12 07 43.0   +00 15 51     1.723    2.394  119.9   21.5   114   12.8 
2025-05-24 00:00 UT   12 08 01.7   +00 14 51     1.736    2.396  119.0   21.7   114   12.8 
2025-05-25 00:00 UT   12 08 21.9   +00 13 40     1.748    2.398  118.1   21.9   114   12.8 
2025-05-26 00:00 UT   12 08 43.4   +00 12 20     1.761    2.400  117.3   22.0   114   12.8 
2025-05-27 00:00 UT   12 09 06.3   +00 10 49     1.774    2.402  116.4   22.2   114   12.9 
2025-05-28 00:00 UT   12 09 30.6   +00 09 08     1.787    2.404  115.5   22.4   114   12.9 
2025-05-29 00:00 UT   12 09 56.2   +00 07 17     1.800    2.406  114.7   22.5   114   12.9 
2025-05-30 00:00 UT   12 10 23.1   +00 05 17     1.813    2.408  113.8   22.6   114   12.9 
2025-05-31 00:00 UT   12 10 51.3   +00 03 07     1.826    2.411  113.0   22.8   114   13.0 
2025-06-01 00:00 UT   12 11 20.9   +00 00 48     1.840    2.413  112.2   22.9   114   13.0 
2025-06-02 00:00 UT   12 11 51.6   +00 01 40     1.853    2.415  111.3   23.0   114   13.0 
2025-06-03 00:00 UT   12 12 23.6   +00 04 18     1.866    2.417  110.5   23.1   114   13.0 
2025-06-04 00:00 UT   12 12 56.9   +00 07 04     1.880    2.419  109.7   23.3   114   13.0 
2025-06-05 00:00 UT   12 13 31.3   +00 09 59     1.893    2.421  108.9   23.4   114   13.1 
2025-06-06 00:00 UT   12 14 06.9   +00 13 02     1.907    2.423  108.1   23.5   114   13.1 
2025-06-07 00:00 UT   12 14 43.6   +00 16 14     1.921    2.425  107.3   23.6   114   13.1 
2025-06-08 00:00 UT   12 15 21.5   +00 19 34     1.934    2.427  106.5   23.6   114   13.1 


    Terminology:
            
    delta:  distance between minor planet and earth in AU
    radius: distance between minor planet and sun in AU
    magn:   magnitude (brightness) estimate    
    ra:     right ascension in hours (24h = 360deg)
    dec:    declination in degrees
    elong:  elongation in degrees (angle sun-earth-minor planet)    
    phase:  phase angle in degrees (angle sun-minor planet-earth)        
    AU:     Astronomical Unit (mean distance between earth and sun: 149597870.7 km
    

Orbital elements provided by the MPC (Minor Planet Center).
Calculations by a modified version of AAPlus, a C# implementation of the AA+ project by PJ Naughter from the algorithms presented in the book "Astronomical Algorithms" by Jean Meeus.
NGC2000 dso catalog and star labels from VizieR as provided by the Strasbourg astronomical Data Center.
Tycho2 catalog from the ESO archive.